Regional Weather Roundup
Issued by NWS

Home | Current Version | Previous Version | Graphics & Text | Print | Product List | Glossary On
Versions: 1 2 3 4 5 6 7 8 9 10 11 12 13 14 15 16 17 18 19 20 21 22 23 24 25 26 27 28 29 30 31 32 33 34 35 36 37 38 39 40 41 42 43 44 45 46 47 48 49 50
000
ASUS45 KCYS 051210
RWRWY

WYOMING REGIONAL WEATHER ROUNDUP
NATIONAL WEATHER SERVICE CHEYENNE WY
600 AM MDT SUN JUL 05 2015

NOTE:  "FAIR" INDICATES FEW OR NO CLOUDS BELOW 12,000 FEET
WITH NO SIGNIFICANT WEATHER AND/OR OBSTRUCTIONS TO VISIBILITY.

WYZ001-051300-
YELLOWSTONE NATIONAL PARK

CITY           SKY/WX    TMP DP  RH WIND       PRES   REMARKS
LK YELLOWSTONE   N/A     47  39  74 CALM      30.18R
6HR MIN TEMP:  46; 6HR MAX TEMP:  56;

W YELLOWSTONE  NOT AVBL

$$
WYZ002>013-054>058-071-098>099-051300-
NORTHERN WYOMING

CITY           SKY/WX    TMP DP  RH WIND       PRES   REMARKS
JACKSON        FAIR      61  45  55 CALM      30.06R
CODY           FAIR      64  52  63 N16G24    29.99R
GREYBULL       FAIR      73  47  39 NW15      29.82R
6HR MIN TEMP:  67; 6HR MAX TEMP:  84;

WORLAND        FAIR      65  53  65 S7        29.82R
6HR MIN TEMP:  63; 6HR MAX TEMP:  77;

SHERIDAN       FAIR      67  57  70 NW28G35   29.86R
6HR MIN TEMP:  59; 6HR MAX TEMP:  70;

BUFFALO        FAIR      68  52  56 N22G35    29.88R
6HR MIN TEMP:  69; 6HR MAX TEMP:  78;

GILLETTE       FAIR      69  56  62 S10       29.81S
6HR MIN TEMP:  66; 6HR MAX TEMP:  75;

HULETT         FAIR      68  55  64 W7        29.82F
NEWCASTLE      FAIR      63  55  77 NW5       29.86F

$$
WYZ014>020-022>026-101>103-051300-
CENTRAL WYOMING

CITY           SKY/WX    TMP DP  RH WIND       PRES   REMARKS
BIG PINEY      FAIR      57  39  51 E5        30.12S
6HR MIN TEMP:  55; 6HR MAX TEMP:  64;

PINEDALE       PTSUNNY   54  41  62 NW6       30.14R
DUBOIS         FAIR      54  34  47 W14       30.09S
LANDER         FAIR      65  44  46 NW7       29.95R
6HR MIN TEMP:  64; 6HR MAX TEMP:  76;

RIVERTON       FAIR      69  43  38 W7        29.95R
6HR MIN TEMP:  64; 6HR MAX TEMP:  81;

CASPER         FAIR      73  46  38 S15       29.93R
6HR MIN TEMP:  71; 6HR MAX TEMP:  77;

DOUGLAS        FAIR      58  53  84 CALM      29.91R
6HR MIN TEMP:  58; 6HR MAX TEMP:  69;


$$
WYZ021-027>030-104>119-051300-
SOUTHERN WYOMING

CITY           SKY/WX    TMP DP  RH WIND       PRES   REMARKS
EVANSTON       CLOUDY    64  49  57 SW14      30.18R
6HR MIN TEMP:  64; 6HR MAX TEMP:  67; 6HR PCP: TRACE;

KEMMERER       CLOUDY    63  46  55 SW3       30.18R
FORT BRIDGER   CLOUDY    64  54  68 W6        30.20R
ROCK SPRINGS   MOCLDY    68  46  45 SW14      30.12R
6HR MIN TEMP:  67; 6HR MAX TEMP:  72;

DIXON          PTSUNNY   68  50  51 SW17G26   30.17S
RAWLINS        FAIR      66  47  50 SW17      30.11R
6HR MIN TEMP:  61; 6HR MAX TEMP:  68;

SARATOGA       FAIR      61  45  55 E8        30.16R
LARAMIE        FAIR      55  47  74 S6        30.14R
6HR MIN TEMP:  53; 6HR MAX TEMP:  71; 6HR PCP:  0.03;

CHEYENNE       FAIR      64  50  60 NW6       30.02R
6HR MIN TEMP:  63; 6HR MAX TEMP:  69;

TORRINGTON     FAIR      61  57  87 CALM      29.87R
6HR MIN TEMP:  59; 6HR MAX TEMP:  70;

PINE BLUFFS    FAIR      57  54  88 S3        29.96S

$$



USA.gov is the U.S. government's official web portal to all federal, state and local government web resources and services.